Hourly Data Report for October 28, 2013

All times are specified in Local Standard Time (LST). Add 1 hour to adjust for Daylight Saving Time where and when it is observed.

HALL BEACH A
NUNAVUT

68°46'33.000" N
81°14'33.000" W
9.10 m
2402354
71293
YUX

Download Data

Hourly Data (October 2013)
Hourly Data Report for October 28, 2013
Temp Definition
°C
Dew Point Temp Definition
°C
Rel Hum Definition
%
Wind Dir Definition
10's deg

Wind Spd Definition
km/h
Visibility Definition
km
Stn Press Definition
kPa
Hmdx Definition


Wind Chill Definition


Weather Definition


TIME
00:00 Legend Double Dagger -20.4 -23.2 79 31 24 16.1 100.15   -32 LegendNANA
01:00 Legend Double Dagger -22.2 -24.8 80 30 22 16.1 100.16   -34 LegendNANA
02:00 Legend Double Dagger -22.3 -24.9 80 31 22 16.1 100.16   -34 LegendNANA
03:00 Legend Double Dagger -23.2 -25.8 80 30 21 16.1 100.16   -35 LegendNANA
04:00 Legend Double Dagger -23.9 -26.4 80 31 21 16.1 100.16   -36 LegendNANA
05:00 Legend Double Dagger -24.3 -26.8 80 31 21 16.1 100.18   -36 LegendNANA
06:00 Legend Double Dagger -24.3 -26.7 81 31 21 16.1 100.19   -36 LegendNANA
07:00 Legend Double Dagger -24.7 -27.1 81 31 18 16.1 100.21   -36 LegendNANA
08:00 Legend Double Dagger -25.1 -27.6 80 31 22 16.1 100.24   -37 LegendNANA
09:00 Legend Double Dagger -25.5 -28.0 80 32 21 16.1 100.26   -38 LegendNANA
10:00 Legend Double Dagger -24.8 -27.3 80 31 21 16.1 100.28   -37 LegendNANA
11:00 Legend Double Dagger -23.2 -25.6 81 31 21 8.1 100.29   -35 LegendNANA
12:00 Legend Double Dagger -22.3 -24.6 82 31 21 16.1 100.29   -34 LegendNANA
13:00 Legend Double Dagger -21.5 -23.8 82 32 24 16.1 100.29   -33 LegendNANA
14:00 Legend Double Dagger -19.7 -21.8 84 32 22 16.1 100.32   -31 LegendNANA
15:00 Legend Double Dagger -18.5 -20.4 85 31 18 16.1 100.33   -28 LegendNANA
16:00 Legend Double Dagger -17.9 -19.7 86 34 21 16.1 100.34   -28 LegendNANA
17:00 Legend Double Dagger -19.9 -22.0 84 32 22 16.1 100.36   -31 LegendNANA
18:00 Legend Double Dagger -20.3 -22.1 86 33 21 16.1 100.40   -31 LegendNANA
19:00 Legend Double Dagger -20.0 -21.8 86 32 22 16.1 100.41   -31 LegendNANA
20:00 Legend Double Dagger -17.7 -19.4 87 33 24 16.1 100.41   -28 LegendNANA
21:00 Legend Double Dagger -15.1 -16.5 89 33 21 16.1 100.41   -25 LegendNANA
22:00 Legend Double Dagger -13.4 -14.8 89 33 18 16.1 100.42   -22 LegendNANA
23:00 Legend Double Dagger -12.9 -14.6 87 33 22 16.1 100.41   -22 LegendNANA

Notes on Data Quality.

Legend

  • E = Estimated
  • M = Missing
  • NA = Not Available
  • ‡ = Partner data that is not subject to review by the National Climate Archives
Date modified: